HOHE-WE Weather Reports


time (UTC)temp
C
wind
direction
speed
KPH
gust
KPH
rain 1hr
cm
rain 24hr
cm
rain mn
cm
humidity
%
barometer
mb
20260507072703 8 151 0.0 1.6 0.18 1.17 0.48 99 1006.9
20260507071803 8 131 0.0 1.6 0.20 1.17 0.48 99 1006.9
20260507070904 8 149 0.0 1.6 0.20 1.14 0.46 99 1006.7
20260507070211 8 149 0.0 1.6 0.20 1.14 0.46 99 1006.6
20260507064503 8 164 0.0 1.6 0.18 1.09 0.38 99 1006.5
20260507063603 7 173 1.6 4.8 0.18 1.04 0.36 99 1006.4
20260507062911 7 174 1.6 4.8 0.18 1.02 0.33 99 1006.3
20260507061803 7 186 3.2 14.5 0.15 0.97 0.28 99 1006.4
20260507060903 7 181 4.8 12.9 0.13 0.94 0.23 99 1006.3
20260507060004 7 184 3.2 6.4 0.13 0.94 0.23 99 1006.3
20260507055611 7 184 3.2 11.3 0.10 0.89 0.20 99 1006.1
20260507054503 7 182 1.6 4.8 0.10 0.89 0.20 99 1006.1
20260507053603 7 184 1.6 9.7 0.05 0.86 0.18 99 1006.2
20260507052703 7 173 0.0 1.6 0.03 0.84 0.15 99 1005.8
20260507051803 7 0 0.0 0.0 0.00 0.81 0.13 99 1005.7
20260507050903 7 157 0.0 1.6 0.03 0.81 0.13 99 1005.6
20260507050005 7 167 0.0 3.2 0.03 0.81 0.13 99 1005.6
20260507045611 7 178 0.0 3.2 0.03 0.81 0.13 99 1005.5
20260507044504 7 172 0.0 3.2 0.03 0.81 0.13 99 1005.6
20260507043810 8 145 0.0 1.6 0.03 0.81 0.13 99 1005.4
20260507042703 8 229 0.0 9.7 0.03 0.81 0.13 99 1005.3
20260507041803 8 233 0.0 9.7 0.03 0.81 0.13 99 1005.1
20260507040903 8 201 1.6 4.8 0.00 0.79 0.10 99 1005.1
20260507040015 8 178 0.0 6.4 0.00 0.79 0.10 99 1005.0
20260507035610 8 180 1.6 6.4 0.00 0.79 0.10 99 1005.0
20260507034503 8 198 0.0 4.8 0.00 0.79 0.10 99 1004.6
20260507033603 8 135 0.0 3.2 0.00 0.79 0.10 99 1004.7
20260507032703 8 205 1.6 9.7 0.00 0.79 0.10 99 1004.5
20260507031803 8 186 1.6 9.7 0.00 0.79 0.10 99 1004.5
20260507030904 8 227 0.0 3.2 0.00 0.79 0.10 99 1004.6
20260507030004 8 188 0.0 3.2 0.00 0.79 0.10 99 1004.4
20260507025403 8 198 1.6 6.4 0.00 0.79 0.10 99 1004.4
20260507024505 8 198 0.0 4.8 0.03 0.79 0.10 99 1004.3
20260507023603 8 160 0.0 4.8 0.05 0.79 0.10 99 1004.4
20260507022705 8 168 0.0 1.6 0.05 0.79 0.10 99 1004.3
20260507021803 9 192 0.0 6.4 0.05 0.79 0.10 99 1004.0
20260507020903 9 206 1.6 6.4 0.10 0.79 0.10 99 1004.4
20260507020004 9 216 0.0 3.2 0.10 0.79 0.10 99 1004.0
20260507015403 9 0 0.0 0.0 0.10 0.79 0.10 99 1003.9
20260507014503 9 195 0.0 3.2 0.05 0.76 0.05 99 1004.0
20260507013603 9 167 0.0 3.2 0.03 0.71 0.03 99 1003.9
20260507012703 9 176 0.0 1.6 0.03 0.71 0.03 99 1003.8
20260507011803 9 153 0.0 1.6 0.03 0.71 0.03 99 1003.9
20260507010903 9 214 1.6 9.7 0.00 0.69 0.00 99 1003.9
20260507010212 10 161 0.0 3.2 0.00 0.69 0.00 99 1003.9
20260507005407 10 149 0.0 3.2 0.00 0.69 0.00 99 1003.9
20260507004712 10 0 0.0 0.0 0.00 0.69 0.00 99 1003.7
20260507003603 10 159 0.0 3.2 0.00 0.69 0.00 99 1003.7
20260507002703 10 162 0.0 1.6 0.00 0.69 0.00 99 1003.7
20260507001803 10 164 0.0 1.6 0.00 0.69 0.00 99 1003.6
20260507000903 10 162 0.0 1.6 0.00 0.69 0.00 99 1003.9
20260507000004 10 159 0.0 3.2 0.00 0.69 0.00 99 1003.7
20260506235403 10 169 0.0 1.6 0.00 0.69 0.00 99 1003.6
20260506234503 10 0 0.0 0.0 0.00 0.69 0.00 99 1003.6
20260506233603 10 0 0.0 0.0 0.00 0.69 0.00 99 1003.6
20260506232703 10 0 0.0 0.0 0.00 0.69 0.00 99 1003.5
20260506231803 10 0 0.0 0.0 0.00 0.69 0.00 99 1003.7
20260506230903 10 171 0.0 1.6 0.00 0.71 0.00 99 1003.5
20260506230004 10 171 0.0 3.2 0.00 0.71 0.00 99 1003.5
20260506225403 10 164 0.0 3.2 0.00 0.76 0.00 99 1003.2
20260506224518 10 0 0.0 0.0 0.00 0.81 0.00 99 1003.3
20260506223811 10 0 0.0 0.0 0.00 0.84 0.00 99 1003.5
20260506222718 10 0 0.0 0.0 0.00 0.86 0.00 99 1003.3
20260506221803 10 0 0.0 0.0 0.00 0.94 0.00 99 1003.6
20260506220904 10 0 0.0 0.0 0.00 0.99 0.00 99 1003.2
20260506220008 10 0 0.0 0.0 0.00 1.04 0.00 99 1003.3
20260506215403 10 0 0.0 0.0 0.00 1.09 1.04 99 1003.3
20260506214711 10 0 0.0 0.0 0.00 1.14 1.04 99 1003.3
20260506213603 10 0 0.0 0.0 0.00 1.17 1.04 99 1003.6
20260506212703 10 0 0.0 0.0 0.00 1.27 1.04 99 1003.5
20260506211803 10 0 0.0 0.0 0.00 1.37 1.04 99 1003.3
20260506210903 10 174 0.0 1.6 0.00 1.47 1.04 99 1003.3
20260506210212 10 179 0.0 1.6 0.00 1.63 1.04 99 1003.3
20260506205403 10 0 0.0 0.0 0.00 1.88 1.04 99 1003.3
20260506204503 10 203 1.6 4.8 0.00 2.16 1.04 99 1003.5
20260506203605 10 188 0.0 3.2 0.00 2.44 1.04 99 1003.2
20260506202703 11 214 1.6 6.4 0.00 2.79 1.04 99 1003.2
20260506201803 11 173 0.0 4.8 0.00 3.25 1.04 99 1003.2
20260506200903 11 179 1.6 4.8 0.00 4.32 1.04 99 1003.0
20260506200005 11 178 1.6 4.8 0.00 5.16 1.04 99 1002.9
20260506195611 11 176 0.0 3.2 0.00 5.36 1.04 99 1002.9
20260506194503 11 173 0.0 1.6 0.00 5.74 1.04 99 1002.9
20260506193603 11 177 0.0 3.2 0.00 5.92 1.04 99 1002.7
20260506192703 11 176 1.6 6.4 0.00 5.94 1.04 99 1002.6
20260506191803 11 184 1.6 4.8 0.00 5.99 1.04 99 1002.6
20260506190903 10 209 1.6 6.4 0.00 6.07 1.04 99 1002.5
20260506190005 10 194 3.2 6.4 0.00 6.12 1.04 99 1002.2
20260506185611 10 197 4.8 6.4 0.00 6.15 1.04 99 1001.9
20260506184504 11 184 1.6 4.8 0.00 6.17 1.04 99 1002.0
20260506183604 11 174 0.0 1.6 0.00 6.20 1.04 99 1001.7
20260506182703 11 165 0.0 1.6 0.00 6.25 1.04 99 1001.4
20260506181804 11 174 0.0 3.2 0.00 6.25 1.04 99 1001.2
20260506180903 11 185 1.6 4.8 0.03 6.27 1.04 99 1001.0
20260506180005 11 174 0.0 6.4 0.05 6.27 1.04 99 1001.2
20260506175405 11 155 1.6 4.8 0.10 6.27 1.04 99 1001.2
20260506174503 11 165 0.0 4.8 0.13 6.27 1.04 99 1001.0
20260506173618 11 168 0.0 3.2 0.18 6.27 1.04 99 1000.9
20260506172703 11 185 1.6 9.7 0.18 6.27 1.04 99 1001.2
20260506171803 11 180 1.6 6.4 0.18 6.27 1.04 99 1001.2
20260506170903 11 195 3.2 9.7 0.15 6.25 1.02 99 1001.5
20260506170005 11 198 4.8 16.1 0.13 6.20 0.99 98 1001.6
20260506165403 11 194 4.8 12.9 0.10 6.17 0.97 98 1001.6
20260506164503 11 194 4.8 11.3 0.05 6.15 0.94 97 1001.5
20260506163811 12 197 3.2 11.3 0.03 6.12 0.94 96 1001.6
20260506162910 12 208 4.8 20.9 0.10 6.10 0.86 96 1001.3
20260506162011 13 192 3.2 12.9 0.23 6.10 0.86 98 1001.4
20260506160903 12 189 3.2 11.3 0.48 6.10 0.86 99 1001.2
20260506160005 12 165 1.6 4.8 0.51 6.10 0.86 99 1001.1
20260506155403 12 166 1.6 4.8 0.51 6.10 0.86 99 1000.9
20260506154504 12 176 3.2 4.8 0.51 6.10 0.86 98 1001.0
20260506153603 12 190 3.2 9.7 0.51 6.10 0.86 96 1001.1
20260506152704 12 201 6.4 14.5 0.38 5.97 0.76 95 1001.1
20260506151803 14 188 4.8 14.5 0.23 5.82 0.61 91 1001.4
20260506150903 17 191 3.2 14.5 0.03 5.61 0.38 77 1001.0
20260506150005 18 188 1.6 6.4 0.00 5.59 0.36 64 1000.7
20260506145404 18 181 3.2 11.3 0.00 5.59 0.36 61 1000.7
20260506144503 18 201 3.2 14.5 0.00 5.59 0.36 60 1001.0
20260506143603 18 244 3.2 9.7 0.00 5.59 0.36 63 1000.9
20260506142718 17 249 3.2 6.4 0.00 5.59 0.36 63 1001.0
20260506141803 18 194 3.2 9.7 0.00 5.59 0.36 66 1001.0
20260506140903 18 208 3.2 6.4 0.00 5.59 0.36 63 1001.1
20260506140004 17 212 1.6 6.4 0.00 5.59 0.36 66 1001.1
20260506135404 17 205 3.2 11.3 0.00 5.59 0.36 68 1001.1
20260506134503 18 178 3.2 12.9 0.00 5.59 0.36 65 1001.2
20260506133603 17 176 3.2 12.9 0.00 5.59 0.36 66 1001.2
20260506132703 18 164 3.2 14.5 0.00 5.59 0.36 62 1001.3
20260506132010 17 193 4.8 16.1 0.00 5.59 0.36 65 1001.1
20260506130903 17 189 6.4 14.5 0.00 5.59 0.36 66 1001.5
20260506130005 19 187 4.8 14.5 0.00 5.59 0.36 60 1001.3
20260506125403 18 193 4.8 17.7 0.00 5.59 0.36 59 1001.4
20260506124503 18 190 6.4 16.1 0.00 5.59 0.36 61 1001.3
20260506123603 18 190 6.4 17.7 0.00 5.59 0.36 60 1001.2
20260506122703 17 184 8.0 22.5 0.00 5.59 0.36 63 1001.4
20260506121803 18 185 6.4 16.1 0.00 5.59 0.36 64 1001.1
20260506120903 17 161 4.8 11.3 0.00 5.59 0.36 66 1001.2
20260506120005 17 177 6.4 22.5 0.00 5.59 0.36 68 1001.4
20260506115403 17 173 6.4 22.5 0.00 5.59 0.36 69 1001.5
20260506114714 17 192 6.4 14.5 0.00 5.59 0.36 69 1001.4
20260506113603 16 179 6.4 14.5 0.00 5.59 0.36 71 1001.2
20260506112703 17 185 4.8 11.3 0.00 5.59 0.36 67 1001.4
20260506111808 17 185 3.2 12.9 0.00 5.59 0.36 66 1001.3
20260506110904 16 203 4.8 12.9 0.00 5.59 0.36 71 1001.5
20260506110006 16 198 3.2 11.3 0.00 5.59 0.36 75 1001.4
20260506105403 17 177 4.8 12.9 0.00 5.59 0.36 71 1001.6
20260506104504 15 198 3.2 12.9 0.00 5.59 0.36 73 1001.5
20260506103618 16 185 4.8 12.9 0.00 5.59 0.36 71 1001.7
20260506102703 15 177 6.4 17.7 0.00 5.59 0.36 74 1001.8
20260506101803 15 190 6.4 14.5 0.00 5.59 0.36 76 1001.9
20260506100904 15 197 6.4 12.9 0.00 5.59 0.36 76 1001.7
20260506100005 14 190 6.4 16.1 0.00 5.59 0.36 80 1001.8
20260506095408 13 191 6.4 14.5 0.00 5.59 0.36 81 1001.5
20260506094503 14 184 6.4 24.1 0.00 5.59 0.36 79 1001.7
20260506093811 14 189 8.0 24.1 0.00 5.59 0.36 80 1001.7
20260506092707 15 182 8.0 17.7 0.00 5.59 0.36 79 1001.5
20260506091805 14 190 8.0 22.5 0.00 5.59 0.36 81 1001.4
20260506090903 14 205 9.7 17.7 0.00 5.59 0.36 79 1001.5
20260506090004 15 207 11.3 22.5 0.00 5.59 0.36 77 1001.3
20260506085611 15 200 11.3 24.1 0.00 5.59 0.36 76 1001.0
20260506084503 15 195 8.0 20.9 0.00 5.59 0.36 78 1001.2
20260506083603 15 200 12.9 24.1 0.00 5.59 0.36 78 1001.1
20260506082912 15 201 9.7 35.4 0.00 5.59 0.36 77 1000.9
20260506081804 14 196 9.7 27.4 0.00 5.59 0.36 80 1001.0
20260506080904 14 193 9.7 25.7 0.00 5.59 0.36 80 1000.9
20260506080211 14 198 8.0 27.4 0.00 5.59 0.36 81 1000.7